Stündliche Wetter Labinsk

Heute, 8 Mai, Samstag

Zeit Temperatur Niederschläge Wind Luftdruck Luftfeuchtigkeit
00:00 +13°C° 0 mm 2 m/S 738 mmHg 82%
01:00 +13°C° 0 mm 2 m/S 738 mmHg 84%
02:00 +12°C° 0 mm 2 m/S 738 mmHg 85%
03:00 +12°C° 0 mm 2 m/S 738 mmHg 87%
04:00 +12°C° 0 mm 2 m/S 737 mmHg 87%
05:00 +13°C° 0 mm 2 m/S 737 mmHg 87%
06:00 +13°C° 0 mm 2 m/S 737 mmHg 86%
07:00 +15°C° 0 mm 2 m/S 737 mmHg 80%
08:00 +18°C° 0 mm 1 m/S 737 mmHg 73%
09:00 +20°C° 0 mm 1 m/S 737 mmHg 66%
10:00 +21°C° 0 mm 1 m/S 736 mmHg 63%
11:00 +23°C° 0 mm 1 m/S 736 mmHg 59%
12:00 +24°C° 0 mm 2 m/S 736 mmHg 56%
13:00 +24°C° 0 mm 1 m/S 736 mmHg 54%
14:00 +25°C° 0 mm 1 m/S 735 mmHg 52%
15:00 +25°C° 0 mm 1 m/S 735 mmHg 50%
16:00 +25°C° 0 mm 1 m/S 735 mmHg 57%
17:00 +24°C° 0 mm 2 m/S 734 mmHg 63%
18:00 +23°C° 0 mm 2 m/S 734 mmHg 70%
19:00 +21°C° 0 mm 2 m/S 734 mmHg 73%
20:00 +19°C° 0 mm 2 m/S 734 mmHg 77%
21:00 +17°C° 0 mm 3 m/S 734 mmHg 81%
22:00 +17°C° 0 mm 3 m/S 733 mmHg 80%
23:00 +16°C° 0 mm 2 m/S 733 mmHg 78%

Morgen, 9 Mai, Sonntag

Zeit Temperatur Niederschläge Wind Luftdruck Luftfeuchtigkeit
00:00 +16°C° 0 mm 2 m/S 732 mmHg 77%
01:00 +15°C° 0 mm 2 m/S 732 mmHg 75%
02:00 +15°C° 0 mm 2 m/S 733 mmHg 73%
03:00 +15°C° 0 mm 2 m/S 733 mmHg 71%
04:00 +14°C° 0.2 mm 2 m/S 733 mmHg 77%
05:00 +14°C° 0.2 mm 1 m/S 733 mmHg 83%
06:00 +13°C° 0.2 mm 1 m/S 733 mmHg 88%
07:00 +13°C° 2 mm 2 m/S 733 mmHg 91%
08:00 +11°C° 2 mm 4 m/S 734 mmHg 94%
09:00 +10°C° 2 mm 6 m/S 734 mmHg 97%
10:00 +9°C° 1.3 mm 6 m/S 735 mmHg 97%
11:00 +8°C° 1.3 mm 6 m/S 736 mmHg 96%
12:00 +7°C° 1.3 mm 6 m/S 737 mmHg 96%
13:00 +5°C° 1.3 mm 6 m/S 737 mmHg 96%
14:00 +5°C° 1.3 mm 6 m/S 738 mmHg 96%
15:00 +4°C° 1.3 mm 6 m/S 739 mmHg 96%
16:00 +5°C° 0.6 mm 5 m/S 740 mmHg 95%
17:00 +5°C° 0.6 mm 5 m/S 740 mmHg 95%
18:00 +5°C° 0.6 mm 4 m/S 741 mmHg 95%
19:00 +5°C° 0.1 mm 4 m/S 742 mmHg 95%
20:00 +5°C° 0.1 mm 4 m/S 742 mmHg 95%
21:00 +5°C° 0.1 mm 4 m/S 742 mmHg 95%
22:00 +4°C° 0 mm 4 m/S 742 mmHg 94%
23:00 +4°C° 0 mm 4 m/S 742 mmHg 93%

übermorgen, 10 Mai, Montag

Zeit Temperatur Niederschläge Wind Luftdruck Luftfeuchtigkeit
00:00 +4°C° 0 mm 4 m/S 742 mmHg 92%
01:00 +4°C° 0 mm 4 m/S 742 mmHg 92%
02:00 +3°C° 0 mm 4 m/S 742 mmHg 91%
03:00 +3°C° 0 mm 3 m/S 742 mmHg 91%
04:00 +3°C° 0 mm 3 m/S 742 mmHg 91%
05:00 +3°C° 0 mm 3 m/S 742 mmHg 91%
06:00 +4°C° 0 mm 3 m/S 743 mmHg 91%
07:00 +5°C° 0.2 mm 4 m/S 742 mmHg 84%
08:00 +7°C° 0.2 mm 5 m/S 742 mmHg 78%
09:00 +8°C° 0.2 mm 5 m/S 742 mmHg 72%
10:00 +9°C° 0.2 mm 5 m/S 742 mmHg 67%
11:00 +10°C° 0.2 mm 6 m/S 742 mmHg 61%
12:00 +10°C° 0.2 mm 6 m/S 741 mmHg 56%
13:00 +10°C° 0.1 mm 7 m/S 741 mmHg 58%
14:00 +10°C° 0.1 mm 7 m/S 741 mmHg 60%
15:00 +10°C° 0.1 mm 8 m/S 740 mmHg 62%
16:00 +9°C° 0.3 mm 7 m/S 741 mmHg 70%
17:00 +8°C° 0.3 mm 6 m/S 741 mmHg 78%
18:00 +7°C° 0.3 mm 6 m/S 741 mmHg 86%
19:00 +5°C° 0.2 mm 6 m/S 741 mmHg 88%
20:00 +6°C° 0.2 mm 5 m/S 741 mmHg 90%
21:00 +5°C° 0.2 mm 5 m/S 741 mmHg 92%
22:00 +5°C° 0 mm 5 m/S 741 mmHg 92%
23:00 +3°C° 0 mm 5 m/S 740 mmHg 91%

11 Mai, Dienstag

Zeit Temperatur Niederschläge Wind Luftdruck Luftfeuchtigkeit
00:00 +4°C° 0 mm 4 m/S 739 mmHg 90%
01:00 +4°C° 0 mm 4 m/S 739 mmHg 89%
02:00 +4°C° 0 mm 4 m/S 739 mmHg 87%
03:00 +5°C° 0 mm 4 m/S 739 mmHg 85%
04:00 +4°C° 0.2 mm 4 m/S 738 mmHg 86%
05:00 +4°C° 0.2 mm 4 m/S 738 mmHg 87%
06:00 +4°C° 0.2 mm 4 m/S 738 mmHg 87%
07:00 +5°C° 0.1 mm 3 m/S 738 mmHg 82%
08:00 +8°C° 0.1 mm 3 m/S 738 mmHg 76%
09:00 +9°C° 0.1 mm 3 m/S 737 mmHg 70%
10:00 +10°C° 0 mm 2 m/S 737 mmHg 65%
11:00 +13°C° 0 mm 2 m/S 737 mmHg 59%
12:00 +14°C° 0 mm 2 m/S 737 mmHg 53%
13:00 +14°C° 0.1 mm 2 m/S 738 mmHg 55%
14:00 +14°C° 0.1 mm 2 m/S 738 mmHg 57%
15:00 +14°C° 0.1 mm 2 m/S 738 mmHg 59%
16:00 +14°C° 0.1 mm 2 m/S 738 mmHg 66%
17:00 +12°C° 0.1 mm 3 m/S 738 mmHg 73%
18:00 +11°C° 0.1 mm 3 m/S 739 mmHg 80%
19:00 +10°C° 0 mm 3 m/S 739 mmHg 84%
20:00 +9°C° 0 mm 3 m/S 739 mmHg 88%
21:00 +8°C° 0 mm 3 m/S 739 mmHg 93%
22:00 +7°C° 0 mm 2 m/S 739 mmHg 94%
23:00 +7°C° 0 mm 2 m/S 738 mmHg 95%

12 Mai, Mittwoch

Zeit Temperatur Niederschläge Wind Luftdruck Luftfeuchtigkeit
00:00 +7°C° 0 mm 1 m/S 738 mmHg 96%
01:00 +6°C° 0 mm 2 m/S 738 mmHg 95%
02:00 +6°C° 0 mm 2 m/S 738 mmHg 94%
03:00 +5°C° 0 mm 2 m/S 738 mmHg 94%
04:00 +6°C° 0 mm 2 m/S 737 mmHg 92%
05:00 +7°C° 0 mm 2 m/S 737 mmHg 89%
06:00 +7°C° 0 mm 2 m/S 737 mmHg 87%
07:00 +9°C° 0 mm 2 m/S 737 mmHg 80%
08:00 +12°C° 0 mm 1 m/S 737 mmHg 74%
09:00 +14°C° 0 mm 1 m/S 737 mmHg 67%
10:00 +16°C° 0 mm 2 m/S 737 mmHg 64%
11:00 +17°C° 0 mm 2 m/S 737 mmHg 61%
12:00 +18°C° 0 mm 2 m/S 737 mmHg 58%
13:00 +19°C° 0 mm 2 m/S 737 mmHg 57%
14:00 +20°C° 0 mm 2 m/S 737 mmHg 57%
15:00 +20°C° 0 mm 2 m/S 737 mmHg 56%
16:00 +20°C° 0 mm 2 m/S 736 mmHg 62%
17:00 +19°C° 0 mm 3 m/S 736 mmHg 68%
18:00 +19°C° 0 mm 3 m/S 736 mmHg 74%
19:00 +17°C° 0 mm 3 m/S 736 mmHg 79%
20:00 +14°C° 0 mm 3 m/S 736 mmHg 85%
21:00 +13°C° 0 mm 2 m/S 736 mmHg 90%
22:00 +12°C° 0 mm 2 m/S 736 mmHg 90%
23:00 +12°C° 0 mm 2 m/S 736 mmHg 90%

13 Mai, Donnerstag

Zeit Temperatur Niederschläge Wind Luftdruck Luftfeuchtigkeit
00:00 +12°C° 0 mm 2 m/S 736 mmHg 90%
01:00 +10°C° 0 mm 2 m/S 736 mmHg 88%
02:00 +10°C° 0 mm 3 m/S 736 mmHg 86%
03:00 +10°C° 0 mm 3 m/S 736 mmHg 84%
04:00 +10°C° 0 mm 3 m/S 736 mmHg 81%
05:00 +10°C° 0 mm 3 m/S 736 mmHg 79%
06:00 +11°C° 0 mm 3 m/S 736 mmHg 76%
07:00 +14°C° 0 mm 3 m/S 736 mmHg 70%
08:00 +18°C° 0 mm 3 m/S 736 mmHg 63%
09:00 +21°C° 0 mm 3 m/S 736 mmHg 57%
10:00 +22°C° 0 mm 3 m/S 736 mmHg 55%
11:00 +24°C° 0 mm 3 m/S 736 mmHg 53%
12:00 +26°C° 0 mm 4 m/S 736 mmHg 52%
13:00 +26°C° 0 mm 4 m/S 736 mmHg 54%
14:00 +26°C° 0 mm 4 m/S 736 mmHg 57%
15:00 +26°C° 0 mm 5 m/S 736 mmHg 60%
16:00 +26°C° 0 mm 5 m/S 736 mmHg 65%
17:00 +25°C° 0 mm 5 m/S 736 mmHg 70%
18:00 +23°C° 0 mm 5 m/S 736 mmHg 74%
19:00 +21°C° 0 mm 4 m/S 736 mmHg 79%
20:00 +19°C° 0 mm 4 m/S 736 mmHg 84%
21:00 +17°C° 0 mm 3 m/S 736 mmHg 88%
22:00 +17°C° 0 mm 3 m/S 736 mmHg 86%
23:00 +16°C° 0 mm 3 m/S 736 mmHg 85%
Mehr zeigen

Wir brauchen deine Erlaubnis

Meteoprog und unser Service Anbieter werden persönliche Daten aufbewahren, so wie Cookies, Geräte Bezeichnung oder ähnliche Technologien von deinem Gerät und Prozess, so wie Persönliche Daten Inhalte und Werbungen, genauso wie social Media und den Verkehr zu analysieren.

  • Aufbewahrung und/oder Zugang zu deiner Geräte Informationen.

    Cookies, Geräte Bezeichnung oder andere Informationen, können aufbewahrt oder Zugang zu deinem Gerät erhalten, für den Grund, der oben angegeben wird.

  • Personalisierte Werbung und Inhalte, Messungen, Einblick in das Publikum und Produkt Entwicklung.

    Werbungen und Inhalte können personalisiert werden, basierend auf ein Profil. Mehr Daten können besser personalisierte Werbungen und Inhalte hinzufügen. Werbung und Inhalte können gezeigt und gemessen werden. Einblicke über das Publikum, welche die Werbung gesehen haben und den Inhalt, können abgeleitet werden. So wie Daten können genutzt werden, um es zu verbessern oder die Benutzer Erfahrung zu verbessern das System und die Software.

Wenn du “Ich stimme zu” klickst, erlaubst du uns, die Cookies zu benutzen die Geräte Bezeichnung, den Web oder ähnliche Technologien zu benutzen. Deine Settings, können in deinem Gerät bei deinem Browser geändert werden.

Für den bestimmten Zweck, berechtigten Interessen beruhen darauf, mehr als auf den Inhalt. Du kannst mehr darüber in unseren Privaten und Cookie Politik lesen.